This demonstration page uses our WeatherBlox Daily Observations layout. Learn more.

Left ArrowRight Arrow

38.88101, -77.10428

Hourly Observations for May 5, 2016

Temp ( °F °C ) Dew Point ( °F °C ) Humidity (%) Winds ( mph kmh ) Pressure ( in mb ) Visibility ( mi km ) Precip ( " mm )
12:17 am 00:17 Cloudy 53 11.7 50 10 89 89 ENE 10 17 29.71 1006 10 16 0.00 0.00
12:52 am 00:52 Cloudy 53 11.7 49 9.4 86 86 ENE 12 19 29.70 1006 10 16 0.00 0.00
1:08 am 01:08 Cloudy 54 12 48 9 82 82 ENE 8 13 29.71 1006 10 16 0.00 0.00
1:52 am 01:52 Cloudy 53 11.7 49 9.4 86 86 ENE 14 22 29.70 1006 10 16 0.00 0.00
2:52 am 02:52 Cloudy 51 10.6 48 8.9 89 89 ENE 10 17 29.69 1005 10 16 0.00 0.00
3:01 am 03:01 Cloudy with Drizzle 51 10.6 49 9.4 92 92 ENE 9 15 29.68 1005 9 14 0.00 0.03
3:11 am 03:11 Cloudy with Drizzle 51 10.6 49 9.4 92 92 ENE 8 13 29.68 1005 8 13 0.00 0.03
3:33 am 03:33 Cloudy with Drizzle 51 10.6 49 9.4 92 92 ENE 8 13 29.68 1005 7 11 0.00 0.03
3:45 am 03:45 Cloudy with Drizzle 51 10.6 49 9.4 92 92 NNE 9 15 29.68 1005 5 8 0.00 0.03
3:52 am 03:52 Cloudy with Drizzle 51 10.6 49 9.4 92 92 NE 10 17 29.68 1005 5 8 0.00 0.03
4:42 am 04:42 Cloudy with Drizzle 52 11 48 9 88 88 NE 10 17 29.68 1005 9 14 0.00 0.00
4:52 am 04:52 Cloudy 51 10.6 49 9.4 92 92 NE 9 15 29.66 1005 10 16 0.00 0.03
5:52 am 05:52 Cloudy with Drizzle 51 10.6 48 8.9 89 89 ENE 10 17 29.65 1004 10 16 0.00 0.03
6:18 am 06:18 Cloudy 52 11 48 9 88 88 NE 9 15 29.65 1004 10 16 0.00 0.00
6:52 am 06:52 Cloudy with Drizzle 51 10.6 48 8.9 89 89 NE 9 15 29.66 1005 10 16 0.00 0.03
7:17 am 07:17 Cloudy with Drizzle 51 10.6 48 8.9 89 89 NE 10 17 29.68 1005 7 11 0.00 0.03
7:30 am 07:30 Cloudy with Drizzle 52 11 48 9 88 88 NE 12 19 29.68 1005 5 8 0.00 0.00
7:46 am 07:46 Cloudy with Drizzle 52 11 48 9 88 88 NE 9 15 29.68 1005 3 5 0.00 0.00
7:52 am 07:52 Cloudy with Drizzle 51 10.6 49 9.4 92 92 NE 12 19 29.67 1005 3 5 0.00 0.03
7:59 am 07:59 Cloudy with Drizzle 51 10.6 49 9.4 92 92 NE 9 15 29.68 1005 3 5 0.00 0.03
8:37 am 08:37 Cloudy with Drizzle 51 10.6 50 10 96 96 ENE 9 15 29.68 1005 3 5 0.00 0.03
8:52 am 08:52 Cloudy with Drizzle 51 10.6 49 9.4 92 92 NNE 10 17 29.67 1005 3 5 0.00 0.03
9:52 am 09:52 Cloudy with Mist and Fog 52 11.1 49 9.4 89 89 NNE 13 20 29.68 1005 4 6 0.00 0.03
10:03 am 10:03 Cloudy with Mist and Fog 52 11 48 9 88 88 NE 10 17 29.68 1005 5 8 0.00 0.00
10:32 am 10:32 Cloudy with Drizzle 54 12 50 10 88 88 NE 9 15 29.68 1005 5 8 0.00 0.00
10:42 am 10:42 Cloudy with Drizzle 52 11 50 10 94 94 NE 9 15 29.68 1005 3 4 0.00 0.00
10:48 am 10:48 Cloudy with Drizzle 52 11 50 10 94 94 NE 10 17 29.68 1005 3 5 0.00 0.00
10:52 am 10:52 Cloudy with Drizzle 52 11.1 50 10 93 93 NE 12 19 29.68 1005 4 6 0.01 0.25
11:11 am 11:11 Cloudy with Drizzle 52 11.1 49 9.4 89 89 NE 13 20 29.68 1005 4 6 0.00 0.03
11:18 am 11:18 Cloudy with Drizzle 54 12 48 9 82 82 NNE 13 20 29.68 1005 4 6 0.00 0.00
11:36 am 11:36 Cloudy with Drizzle 52 11 48 9 88 88 NE 15 24 29.68 1005 5 8 0.00 0.00
11:52 am 11:52 Cloudy with Drizzle 52 11.1 49 9.4 89 89 NNE 13 20 29.68 1005 4 6 0.00 0.03
12:52 pm 12:52 Cloudy 53 11.7 48 8.9 83 83 NNE 9 15 29.67 1005 10 16 0.00 0.03
1:00 pm 13:00 Cloudy 54 12 48 9 82 82 NE 12 19 29.68 1005 10 16 0.00 0.00
1:52 pm 13:52 Cloudy 54 12.2 48 8.9 80 80 NE 13 20 29.65 1004 10 16 0.00 0.00
2:52 pm 14:52 Cloudy 56 13.3 49 9.4 77 77 NE 8 13 29.65 1004 10 16 0.00 0.00
3:52 pm 15:52 Cloudy 57 13.9 47 8.3 69 69 N 12 19 29.63 1004 10 16 0.00 0.00
4:42 pm 16:42 Cloudy 57 14 46 8 67 67 NNE 14 22 29.62 1003 10 16 0.00 0.00
4:52 pm 16:52 Cloudy 57 13.9 47 8.3 69 69 NNE 13 20 29.63 1003 10 16 0.00 0.00
5:03 pm 17:03 Cloudy 57 14 46 8 67 67 NNE 14 22 29.62 1003 10 16 0.00 0.00
5:29 pm 17:29 Cloudy 57 13.9 47 8.3 69 69 NNE 14 22 29.62 1003 10 16 0.00 0.00
5:50 pm 17:50 Cloudy with Light Rain 55 13 48 9 77 77 NE 12 19 29.65 1004 7 11 0.00 0.00
5:52 pm 17:52 Cloudy with Light Rain 56 13.3 49 9.4 77 77 NE 12 19 29.64 1004 9 14 0.00 0.03
6:13 pm 18:13 Cloudy 56 13.3 48 8.9 75 75 NNE 14 22 29.65 1004 9 14 0.00 0.03
6:52 pm 18:52 Cloudy 56 13.3 48 8.9 75 75 NNE 13 20 29.64 1004 9 14 0.00 0.03
7:52 pm 19:52 Cloudy 56 13.3 48 8.9 75 75 NNE 14 22 29.65 1004 10 16 0.01 0.25
8:52 pm 20:52 Cloudy 56 13.3 48 8.9 75 75 N 12 19 29.67 1005 10 16 0.00 0.03
9:10 pm 21:10 Cloudy 55 13 48 9 77 77 NNE 10 17 29.68 1005 10 16 0.00 0.00
9:21 pm 21:21 Cloudy 56 13.3 48 8.9 75 75 NNE 10 17 29.68 1005 10 16 0.00 0.00
9:31 pm 21:31 Cloudy 56 13.3 49 9.4 77 77 NNE 9 15 29.68 1005 10 16 0.00 0.00
9:52 pm 21:52 Cloudy 55 12.8 49 9.4 80 80 N 9 15 29.68 1005 10 16 0.00 0.00
10:07 pm 22:07 Cloudy 55 12.8 49 9.4 80 80 N 8 13 29.68 1005 10 16 0.00 0.00
10:52 pm 22:52 Cloudy 55 12.8 50 10 83 83 N 7 11 29.68 1005 10 16 0.00 0.00
11:52 pm 23:52 Cloudy 55 12.8 49 9.4 80 80 N 10 17 29.67 1005 10 16 0.00 0.03

Powered by AerisWeather